Location: Holcomb Observatory and Planetarium
(39.8415°N, 86.1714°W)
Time: 21:08:09
(UTC-05:00)

ISS - Visible Passes

Search period start: 21 December 2014 00:00
Search period end: 31 December 2014 00:00
Orbit: 404 x 414 km, 51.6° (Epoch: 21 December)

Date Brightness Start Highest point End Pass type
(mag) Time Alt. Az. Time Alt. Az. Time Alt. Az.
21 Dec -1.0 17:54:33 10° NNW 17:55:47 12° N 17:57:02 10° NNE visible
21 Dec -0.6 19:30:17 10° NW 19:30:46 13° NNW 19:30:46 13° NNW visible
22 Dec -1.7 18:39:42 10° NNW 18:42:14 20° NNE 18:42:17 20° NNE visible
23 Dec -1.4 17:49:07 10° NNW 17:51:10 15° NNE 17:53:13 10° NE visible
23 Dec -1.6 19:24:59 10° NW 19:26:41 27° NW 19:26:41 27° NW visible
24 Dec -2.7 18:34:13 10° NW 18:37:18 36° NNE 18:38:28 27° ENE visible
24 Dec 0.2 20:11:03 10° WNW 20:11:16 11° W 20:11:16 11° W visible
25 Dec -2.4 19:19:48 10° WNW 19:22:57 46° SW 19:23:18 43° SSW visible
26 Dec -3.4 18:28:45 10° NW 18:32:02 89° NE 18:35:18 10° SE visible
27 Dec -0.4 19:15:03 10° W 19:17:18 17° SW 19:19:33 10° S visible
28 Dec -1.4 18:23:26 10° WNW 18:26:25 32° SW 18:29:23 10° SSE visible
30 Dec 0.2 18:18:56 10° W 18:20:28 13° SW 18:21:59 10° SSW visible
